Flight Track Log - Related Links

Times and Time Zones

All times are in EDT time to prevent confusion due to time zone crossing. See the FLG4262 flight status page for this flight to view local times or setup timezone preferences in your user account.

Time Position Orientation Groundspeed Altitude Reporting Facility
EDT Latitude Longitude Course Direction KTS MPH feet Rate Location/Type
Fri 03:55:53 PM 42.1903 -83.3536 84° East 158 182 1,400  Level Cleveland Center
Fri 03:57:10 PM 42.1272 -83.3514 179° South 195 224 3,600 1,875 Climbing Cleveland Center
Fri 03:57:13 PM 42.1214 -83.3522 186° South 217 250 3,900 1,862 Climbing Cleveland Center
Fri 03:58:08 PM 42.0631 -83.3469 176° South 268 308 5,400 1,729 Climbing Cleveland Center
Fri 03:58:12 PM 42.0575 -83.3444 162° South 239 275 5,600 2,507 Climbing Cleveland Center
Fri 03:59:00 PM 42.2293 -82.7720 56° Northeast  Level Estimated
Fri 03:59:15 PM 42.0475 -83.2519 98° East 275 316 8,200  Level Cleveland Center
Fri 04:00:00 PM 42.2330 -82.6266 94° East  Level Estimated
Fri 04:00:16 PM 42.0858 -83.1617 60° Northeast 288 331 10,000  Level Cleveland Center
Fri 04:00:17 PM 42.0803 -83.1697 227° Southwest 278 320 10,000 1,082 Level Cleveland Center
Fri 04:01:00 PM 42.2450 -82.4820 84° East  Level FlightAware
Fri 04:01:17 PM 42.1297 -83.0522 60° Northeast 341 392 11,100  Level Cleveland Center
Fri 04:01:19 PM 42.1231 -83.0631 230° Southwest 326 375 10,900 1,219 Descending Cleveland Center
Fri 04:02:21 PM 42.1686 -82.9500 61° Northeast 344 396 12,400 1,016 Climbing Cleveland Center
Fri 04:03:23 PM 42.2264 -82.8075 61° Northeast 364 419 13,000 1,065 Climbing Cleveland Center
Fri 04:04:25 PM 42.2758 -82.6836 62° Northeast 377 434 14,600 1,548 Climbing Cleveland Center
Fri 04:05:27 PM 42.3233 -82.5625 62° Northeast 368 423 16,200 1,440 Climbing Cleveland Center
Fri 04:06:30 PM 42.3661 -82.4419 64° Northeast 361 415 17,600 1,248 Climbing Cleveland Center
Fri 04:07:32 PM 42.3603 -82.2708 93° East 378 435 18,800 1,016 Climbing Cleveland Center
Fri 04:08:34 PM 42.3544 -82.1389 93° East 379 436 19,700 919 Climbing Cleveland Center
Fri 04:09:36 PM 42.3481 -81.9939 93° East 381 438 20,700 823 Climbing Cleveland Center
Fri 04:10:38 PM 42.3411 -81.8444 94° East 392 451 21,400 774 Climbing Cleveland Center
Fri 04:11:40 PM 42.3333 -81.6656 93° East 402 463 22,300 677 Climbing Cleveland Center
Fri 04:12:42 PM 42.3264 -81.5086 93° East 411 473 22,800 484 Climbing Cleveland Center
Fri 04:13:44 PM 42.3186 -81.3497 94° East 417 480 23,300 484 Climbing Cleveland Center
Fri 04:14:46 PM 42.3108 -81.1883 94° East 424 488 23,800 484 Climbing Cleveland Center
Fri 04:15:48 PM 42.3019 -81.0253 94° East 429 494 24,300 484 Climbing Cleveland Center
Fri 04:16:50 PM 42.2928 -80.8589 94° East 437 503 24,800 435 Climbing Cleveland Center
Fri 04:17:52 PM 42.2853 -80.6969 94° East 433 498 25,200 484 Climbing Cleveland Center
Fri 04:18:54 PM 42.2761 -80.5347 94° East 430 495 25,800 576 Climbing Cleveland Center
Fri 04:19:57 PM 42.2675 -80.3717 94° East 431 496 26,400 576 Climbing Cleveland Center
Fri 04:20:59 PM 42.2567 -80.1822 94° East 431 496 27,000 290 Climbing Cleveland Center
Fri 04:22:01 PM 42.2461 -80.0194 95° East 431 496 27,000  Level Cleveland Center
Fri 04:23:03 PM 42.2372 -79.8678 94° East 438 504 27,000  Level Cleveland Center
Fri 04:24:05 PM 42.2253 -79.6711 95° East 442 509 27,000  Level Cleveland Center
Fri 04:25:07 PM 42.2133 -79.5058 96° East 445 512 27,000  Level Cleveland Center
Fri 04:26:09 PM 42.2036 -79.3392 94° East 450 518 27,000  Level Cleveland Center
Fri 04:27:11 PM 42.1917 -79.1731 95° East 448 516 27,000  Level Cleveland Center
Fri 04:28:13 PM 42.1914 -79.0075 90° East 443 510 27,000  Level Cleveland Center
Fri 04:29:15 PM 42.1947 -78.8172 89° East 439 505 27,000  Level Cleveland Center
Fri 04:30:17 PM 42.1975 -78.6528 89° East 440 506 27,000  Level Cleveland Center
Fri 04:31:19 PM 42.2000 -78.4894 89° East 440 506 27,000  Level Cleveland Center
Fri 04:32:21 PM 42.2022 -78.3281 89° East 435 501 27,000 -720 Level Cleveland Center
Fri 04:33:24 PM 42.2058 -78.1631 88° East 440 506 25,500 -1,584 Descending Cleveland Center
Fri 04:34:26 PM 42.2081 -77.9603 89° East 453 521 23,700 -1,210 Descending Cleveland Center
Fri 04:35:28 PM 42.2083 -77.7933 90° East 451 519 23,000 -339 Descending Cleveland Center
Fri 04:36:30 PM 42.2108 -77.6297 89° East 445 512 23,000  Level Cleveland Center
Fri 04:37:32 PM 42.2111 -77.4664 90° East 442 509 23,000 -339 Level Cleveland Center
Fri 04:38:34 PM 42.2111 -77.2689 90° East 443 510 22,300 -1,548 Descending Cleveland Center
Fri 04:39:36 PM 42.2125 -77.1056 89° East 442 509 19,800 -2,226 Descending Cleveland Center
Fri 04:40:38 PM 42.2128 -76.9514 90° East 420 483 17,700 -2,129 Descending Cleveland Center
Fri 04:41:40 PM 42.2128 -76.8028 90° East 403 464 15,400 -2,081 Descending Cleveland Center
Fri 04:42:42 PM 42.2125 -76.6594 90° East 389 448 13,400 -2,016 Descending Cleveland Center
Fri 04:43:45 PM 42.2114 -76.5044 91° East 346 398 11,200 -1,728 Descending Cleveland Center
Fri 04:44:47 PM 42.1961 -76.3986 101° East 297 342 9,800 -1,548 Descending Cleveland Center
Fri 04:45:49 PM 42.1731 -76.3083 109° East 280 322 8,000 -1,984 Descending Cleveland Center
Fri 04:46:51 PM 42.1431 -76.1939 109° East 274 315 5,700 -1,548 Descending Cleveland Center
Fri 04:47:53 PM 42.1200 -76.1028 109° East 264 304 4,800 -791 Descending Cleveland Center
Fri 04:49:00 PM 42.0967 -76.0222 111° Southeast 243 280 4,000 -375 Descending New Center
Fri 04:50:01 PM 42.0894 -75.9519 98° East 213 245 4,000 -347 Level New Center
Fri 04:51:01 PM 42.1258 -75.9242 30° Northeast 142 163 3,300 -793 Descending New Center
Fri 04:52:02 PM 42.1667 -75.9439 340° North 110 127 2,400 -600 Descending New Center
Fri 04:53:01 PM 42.1997 -75.9494 353° North 110 127 2,100 -305 Descending New Center

Login

Don't have an account? Register now (free) for customized features, flight alerts, and more!